Regional Weather Roundup
Issued by NWS Glasgow, MT

Home | Current Version | Previous Version | Text Only | Print | Product List | Glossary On
Versions: 1 2 3 4 5 6 7 8 9 10 11 12 13 14 15 16 17 18 19 20 21 22 23 24 25 26 27 28 29 30 31 32 33 34 35 36 37 38 39 40 41 42 43 44 45 46 47 48 49 50
000
ASUS45 KGGW 301215
RWRGGW
HOURLY WEATHER ROUNDUP FOR NORTHEAST MONTANA
NATIONAL WEATHER SERVICE GLASGOW MONTANA
600 AM MDT SAT AUG 30 2014

NOTE: "FAIR" INDICATES FEW OR NO CLOUDS BELOW 12,000 FEET WITH NO
SIGNIFICANT WEATHER AND/OR OBSTRUCTIONS TO VISISBILITY.

NORTHEAST MONTANA


CITY           SKY/WX    TMP DP  RH WIND       PRES   REMARKS
GLASGOW        PTCLDY    55  53  93 E13       29.77S
6HR MIN TEMP:  55; 6HR MAX TEMP:  59;

PLENTYWOOD       N/A     53  50  89 SE5         N/A
WOLF POINT     CLEAR     58  52  80 NE12      29.79F
JORDAN           N/A     59  52  77 SE8       29.78S
WINNETT          N/A     58  53  84 CALM        N/A
SIDNEY         CLEAR     54  50  87 SE3       29.87F
GLENDIVE       PTCLDY    54  52  94 CALM      29.86F
MALTA            N/A     64  56  75 E3          N/A

FORT PECK REPORTS


CITY           SKY/WX    TMP DP  RH WIND       PRES   REMARKS
FORT PECK        N/A     63  56  78 S9          N/A
THE PINES        N/A     62  51  67 S9          N/A

SOUTHEAST MONTANA


CITY           SKY/WX    TMP DP  RH WIND       PRES   REMARKS
BILLINGS       MOCLDY    60  53  77 SW7       29.80
MILES CITY     CLEAR     61  51  70 SE15      29.78F
BAKER          CLEAR     54  51  90 SE15      29.89F
LIVINGSTON     LGT RAIN  63  49  60 W21G26    29.87R

CENTRAL MONTANA


CITY           SKY/WX    TMP DP  RH WIND       PRES   REMARKS
HAVRE          CLOUDY    66  50  56 SW8       29.74R
LEWISTOWN      CLOUDY    60  52  74 CALM      29.81R
GREAT FALLS    CLOUDY    61  41  47 SW8       29.82R
CUT BANK       CLOUDY    60  40  47 W9        29.79R
HELENA         LGT RAIN  64  42  44 W13G20    29.91R
BUTTE          CLOUDY    52  46  80 SW3       30.00R
BOZEMAN        LGT RAIN  59  48  67 W14       29.95R

WESTERN MONTANA


CITY           SKY/WX    TMP DP  RH WIND       PRES   REMARKS
MISSOULA       CLOUDY    62  46  55 W5        29.89F
KALISPELL      NOT AVBL

NORTH DAKOTA


CITY           SKY/WX    TMP DP  RH WIND       PRES   REMARKS
WILLISTON      CLEAR     57  51  80 SE8       29.88F
DICKINSON      MOCLDY    52  50  93 SE10      29.93S
MINOT          CLEAR     47  45  93 SE6       29.94F
BISMARCK       FOG       47  47 100 CALM      29.98S VSB 1/4

SOUTHERN SASKATCHEWAN


CITY           SKY/WX    TMP DP  RH WIND       PRES   REMARKS
REGINA         PTCLDY    52  50  93 SE16      29.80F
ESTEVAN        PTCLDY    52  50  93 SE9       29.89F
SWIFT CURRENT  CLOUDY    59  52  77 S18       29.67F



USA.gov is the U.S. government's official web portal to all federal, state and local government web resources and services.